Regional Weather Roundup
Issued by NWS

Home | Current Version | Previous Version | Graphics & Text | Print | Product List | Glossary On
Versions: 1 2 3 4 5 6 7 8 9 10 11 12 13 14 15 16 17 18 19 20 21 22 23 24 25 26 27 28 29 30 31 32 33 34 35 36 37 38 39 40 41 42 43 44 45 46 47 48 49 50
000
ASUS45 KSLC 281010
RWRUT

UTAH REGIONAL WEATHER ROUNDUP
NATIONAL WEATHER SERVICE SALT LAKE CITY UT
400 AM MDT THU MAY 28 2015

UTZ001>011-023>025-281100-

NORTHERN UTAH

CITY           SKY/WX    TMP DP  RH WIND       PRES   REMARKS
BRIGHAM CITY   PTCLDY    55  48  75 CALM      30.09S
HILL AFB       PTCLDY    51  45  80 SE7       30.10S
LOGAN          CLEAR     47  44  90 N5        30.09S
OGDEN          PTCLDY    50  47  89 S8        30.08F
PROVO AIRPORT  PTCLDY    50  43  76 CALM      30.12S
SALT LAKE CITY PTCLDY    51  47  86 SE9       30.08F
VERNAL         MOCLDY    48  45  89 W6        30.11F
WENDOVER       CLOUDY    55  46  71 NE9       30.10R
HEBER CITY     PTCLDY    39  36  87 CALM      30.16S
WEST JORDAN    PTCLDY    48  46  93 CALM      30.10F

$$

UTZ012>022-026-027-281100-

SOUTHERN/CENTRAL UTAH

CITY           SKY/WX    TMP DP  RH WIND       PRES   REMARKS
BLANDING       CLEAR     51  40  65 CALM      30.19R
BRYCE CANYON   PTCLDY    40  38  93 NE6       30.22F
CEDAR CITY     PTCLDY    47  44  90 CALM      30.12S
DELTA          CLEAR     47  44  89 NE7       30.10F
HANKSVILLE     PTCLDY    54  45  71 N3        30.11R
MILFORD        PTCLDY    48  43  82 CALM      30.10R
MOAB/CYNLANDS  CLEAR     53  46  77 N6        30.07F
PRICE          PTCLDY    46  41  82 N3        30.14R
ST GEORGE      MOSUNNY   64  41  42 CALM      30.02S
KANAB          CLEAR     54  39  58 NE5       30.14S

$$

REGIONAL REPORTS     COLORADO/ARIZONA

CITY           SKY/WX    TMP DP  RH WIND       PRES   REMARKS
CRAIG, CO      CLOUDY    49  44  83 CALM      30.14S
GRAND JUNCTION MOCLDY    52  49  89 SE8       30.10S
RIFLE          MOCLDY    48  46  93 NE5       30.16S
MONTROSE       MOCLDY    51  42  71 CALM      30.16F
CORTEZ         CLEAR     44  38  79 E6        30.13R
PAGE, AZ       CLEAR     64  41  42 CALM      30.05R
GRAND CANYON   CLEAR     37  32  82 CALM      30.19S
KINGMAN        CLEAR     60  20  21 SE14      30.01S
FLAGSTAFF      CLEAR     38  30  73 CALM      30.20F

$$

REGIONAL REPORTS    NEVADA/IDAHO/WYOMING

CITY           SKY/WX    TMP DP  RH WIND       PRES   REMARKS
LAS VEGAS, NV  CLEAR     76  33  21 CALM      29.86R
ELY            CLEAR     42  40  92 SE10      30.16S
ELKO           PTCLDY    49  44  83 W3        30.10R
POCATELLO, ID  CLEAR     46  45  96 NE3       30.08F
BURLEY         PTCLDY    49  43  80 NW3       30.05S
EVANSTON, WY   CLEAR     39  37  92 SW9       30.17S WCI  33
ROCK SPRINGS   CLOUDY    45  40  82 SW12      30.14S
KEMMERER       PTCLDY    37  36  93 CALM      30.17S

$$


USA.gov is the U.S. government's official web portal to all federal, state and local government web resources and services.